Notices

What's New in latest Release from April 7th, 2021:

- Updated Glossary, including Speed of Maximum Gust, and Total Hourly Precipitation

- Updated national and regional climate services offices contacts and prices information

- Addition of station inventory lists for 1981-2010, 1971-2000, and 1961-1990 Normals.

If you haven't already, please take our survey and provide feedback about our website: https://eccc.sondage-survey.ca/f/LanguageSelection.aspx?s=442ca660-fcf1-47c0-95a9-59707d6fd709

Hourly Data Report for January 12, 2021

STE-ANNE-DE-BELLEVUE 1
QUEBEC
Current Station Operator: ECCC - MSC

45°25'38.000" N
73°55'45.000" W
39.00 m
702FHL8
71377
WVQ

Download Data

Hourly Data (January 2021)
Hourly Data Report for January 12, 2021
TIME
LST
Temp Definition
°C
Dew Point Definition
°C
Rel Hum Definition
%
Precip. Amount Definition
mm

Wind Dir Definition
10's deg

Wind Spd Definition
km/h
Visibility Definition
km
Stn Press Definition
kPa
Hmdx Definition


Wind Chill Definition


Weather Definition


00:00 -0.4 -0.8 97 0.5 18 6   101.25   -2 LegendNANA
01:00 0.0 -0.3 98 0.3 22 9   101.22   -3 LegendNANA
02:00 0.0 -0.2 98 0.0 22 9   101.22   -3 LegendNANA
03:00 -0.2 -0.7 96 0.0 24 13   101.24   -4 LegendNANA
04:00 -0.5 -1.4 94 0.0 25 10   101.21   -4 LegendNANA
05:00 -0.8 -1.9 92 0.2 24 10   101.23   -4 LegendNANA
06:00 -0.9 -2.5 89 0.0 25 11   101.26   -5 LegendNANA
07:00 -1.3 -3.1 88 0.0 26 7   101.29   -4 LegendNANA
08:00 -1.7 -3.4 89 0.0 24 11   101.32   -6 LegendNANA
09:00 -1.5 -3.4 87 0.0 25 11   101.37   -5 LegendNANA
10:00 -1.0 -3.4 84 0.0 25 13   101.38   -5 LegendNANA
11:00 -0.8 -3.2 84 0.0 25 15   101.35   -5 LegendNANA
12:00 -0.4 -3.3 80 0.0 25 14   101.26   -5 LegendNANA
13:00 -0.1 -3.3 79 0.0 25 13   101.24   -4 LegendNANA
14:00 0.2 -3.3 77 0.0 24 10   101.23     LegendNANA
15:00 0.3 -3.6 75 0.0 24 9   101.24     LegendNANA
16:00 0.2 -3.7 75 0.0 23 9   101.23     LegendNANA
17:00 0.0 -3.8 76 0.0 24 7   101.22   -2 LegendNANA
18:00 -0.3 -3.9 77 0.0 24 9   101.21   -3 LegendNANA
19:00 -0.5 -4.0 77 0.0 24 5   101.23   -2 LegendNANA
20:00 -0.7 -4.1 78 0.0 23 5   101.23   -2 LegendNANA
21:00 -0.5 -4.2 76 0.0 24 8   101.23   -3 LegendNANA
22:00 -0.8 -3.9 80 0.0 29 9   101.23   -4 LegendNANA
23:00 -0.7 -3.7 81 0.0 28 8   101.17   -4 LegendNANA

Notes on Data Quality.

Legend

  • E = Estimated
  • M = Missing
  • NA = Not Available*
  • [empty] = Indicates an unobserved value
Date modified: